Meteo orario Bretyanka

Oggi, 2 Ottobre, Venerdi

Tempo Temperatura Precipitazioni Vento Pressione Umidità
00:00 +12°C° 0 mm 5 m/s 738 mm Hg 72%
01:00 +10°C° 0 mm 5 m/s 738 mm Hg 72%
02:00 +10°C° 0 mm 5 m/s 738 mm Hg 73%
03:00 +10°C° 0 mm 5 m/s 738 mm Hg 72%
04:00 +10°C° 0 mm 5 m/s 738 mm Hg 72%
05:00 +10°C° 0 mm 5 m/s 738 mm Hg 72%
06:00 +10°C° 0.2 mm 5 m/s 738 mm Hg 77%
07:00 +10°C° 0.2 mm 6 m/s 738 mm Hg 81%
08:00 +10°C° 0.2 mm 6 m/s 738 mm Hg 86%
09:00 +11°C° 0 mm 6 m/s 738 mm Hg 82%
10:00 +11°C° 0 mm 6 m/s 738 mm Hg 77%
11:00 +13°C° 0 mm 5 m/s 738 mm Hg 73%
12:00 +14°C° 0 mm 5 m/s 739 mm Hg 72%
13:00 +14°C° 0 mm 5 m/s 739 mm Hg 71%
14:00 +15°C° 0 mm 5 m/s 739 mm Hg 70%
15:00 +15°C° 0 mm 4 m/s 739 mm Hg 72%
16:00 +14°C° 0 mm 4 m/s 739 mm Hg 75%
17:00 +14°C° 0 mm 3 m/s 739 mm Hg 77%
18:00 +13°C° 0 mm 4 m/s 739 mm Hg 80%
19:00 +13°C° 0 mm 4 m/s 739 mm Hg 84%
20:00 +12°C° 0 mm 5 m/s 740 mm Hg 87%
21:00 +12°C° 0 mm 5 m/s 739 mm Hg 89%
22:00 +12°C° 0 mm 5 m/s 739 mm Hg 91%
23:00 +11°C° 0 mm 4 m/s 739 mm Hg 93%

Domani, 3 Ottobre, Sabato

Tempo Temperatura Precipitazioni Vento Pressione Umidità
00:00 +11°C° 0 mm 4 m/s 739 mm Hg 93%
01:00 +11°C° 0 mm 4 m/s 739 mm Hg 94%
02:00 +11°C° 0 mm 4 m/s 740 mm Hg 95%
03:00 +10°C° 0 mm 5 m/s 739 mm Hg 95%
04:00 +10°C° 0 mm 5 m/s 739 mm Hg 95%
05:00 +10°C° 0 mm 5 m/s 739 mm Hg 95%
06:00 +10°C° 0 mm 5 m/s 739 mm Hg 93%
07:00 +10°C° 0 mm 5 m/s 739 mm Hg 92%
08:00 +10°C° 0 mm 5 m/s 739 mm Hg 90%
09:00 +12°C° 0 mm 5 m/s 740 mm Hg 87%
10:00 +13°C° 0 mm 5 m/s 740 mm Hg 84%
11:00 +14°C° 0 mm 6 m/s 740 mm Hg 80%
12:00 +14°C° 0.1 mm 6 m/s 740 mm Hg 80%
13:00 +15°C° 0.1 mm 6 m/s 739 mm Hg 79%
14:00 +15°C° 0.1 mm 6 m/s 739 mm Hg 78%
15:00 +15°C° 0.1 mm 6 m/s 739 mm Hg 79%
16:00 +15°C° 0.1 mm 7 m/s 739 mm Hg 80%
17:00 +14°C° 0.1 mm 7 m/s 739 mm Hg 82%
18:00 +14°C° 0 mm 7 m/s 739 mm Hg 83%
19:00 +14°C° 0 mm 7 m/s 739 mm Hg 84%
20:00 +14°C° 0 mm 6 m/s 739 mm Hg 85%
21:00 +14°C° 0 mm 6 m/s 739 mm Hg 83%
22:00 +14°C° 0 mm 6 m/s 739 mm Hg 82%
23:00 +14°C° 0 mm 6 m/s 738 mm Hg 81%

Dopodomani, 4 Ottobre, Domenica

Tempo Temperatura Precipitazioni Vento Pressione Umidità
00:00 +14°C° 0 mm 6 m/s 738 mm Hg 81%
01:00 +14°C° 0 mm 6 m/s 738 mm Hg 81%
02:00 +14°C° 0 mm 6 m/s 738 mm Hg 81%
03:00 +14°C° 0 mm 6 m/s 738 mm Hg 81%
04:00 +14°C° 0 mm 6 m/s 738 mm Hg 82%
05:00 +15°C° 0 mm 6 m/s 738 mm Hg 82%
06:00 +15°C° 0 mm 6 m/s 738 mm Hg 82%
07:00 +15°C° 0 mm 7 m/s 738 mm Hg 81%
08:00 +15°C° 0 mm 7 m/s 738 mm Hg 80%
09:00 +16°C° 0 mm 7 m/s 738 mm Hg 75%
10:00 +17°C° 0 mm 8 m/s 738 mm Hg 71%
11:00 +18°C° 0 mm 8 m/s 738 mm Hg 66%
12:00 +20°C° 0 mm 8 m/s 738 mm Hg 64%
13:00 +21°C° 0 mm 8 m/s 738 mm Hg 62%
14:00 +21°C° 0 mm 8 m/s 738 mm Hg 61%
15:00 +21°C° 0 mm 8 m/s 738 mm Hg 63%
16:00 +21°C° 0 mm 7 m/s 738 mm Hg 65%
17:00 +20°C° 0 mm 6 m/s 738 mm Hg 67%
18:00 +20°C° 0 mm 6 m/s 738 mm Hg 68%
19:00 +20°C° 0 mm 6 m/s 739 mm Hg 69%
20:00 +19°C° 0 mm 6 m/s 739 mm Hg 71%
21:00 +19°C° 0 mm 6 m/s 739 mm Hg 72%
22:00 +17°C° 0 mm 5 m/s 739 mm Hg 74%
23:00 +17°C° 0 mm 5 m/s 740 mm Hg 76%

5 Ottobre, Lunedi

Tempo Temperatura Precipitazioni Vento Pressione Umidità
00:00 +16°C° 0.1 mm 5 m/s 740 mm Hg 77%
01:00 +16°C° 0.1 mm 5 m/s 740 mm Hg 78%
02:00 +15°C° 0.1 mm 5 m/s 740 mm Hg 78%
03:00 +15°C° 0.3 mm 5 m/s 740 mm Hg 81%
04:00 +15°C° 0.3 mm 5 m/s 740 mm Hg 83%
05:00 +15°C° 0.3 mm 5 m/s 740 mm Hg 85%
06:00 +15°C° 0.3 mm 5 m/s 740 mm Hg 85%
07:00 +15°C° 0.3 mm 5 m/s 740 mm Hg 85%
08:00 +15°C° 0.3 mm 5 m/s 740 mm Hg 85%
09:00 +16°C° 0 mm 6 m/s 740 mm Hg 81%
10:00 +17°C° 0 mm 7 m/s 740 mm Hg 76%
11:00 +18°C° 0 mm 7 m/s 740 mm Hg 71%
12:00 +20°C° 0 mm 7 m/s 739 mm Hg 70%
13:00 +20°C° 0 mm 7 m/s 739 mm Hg 68%
14:00 +21°C° 0 mm 7 m/s 739 mm Hg 66%
15:00 +21°C° 0 mm 7 m/s 739 mm Hg 68%
16:00 +20°C° 0 mm 6 m/s 738 mm Hg 70%
17:00 +20°C° 0 mm 6 m/s 738 mm Hg 72%
18:00 +20°C° 0 mm 6 m/s 738 mm Hg 73%
19:00 +20°C° 0 mm 6 m/s 738 mm Hg 74%
20:00 +20°C° 0 mm 7 m/s 738 mm Hg 74%
21:00 +19°C° 0.1 mm 6 m/s 738 mm Hg 76%
22:00 +19°C° 0.1 mm 6 m/s 738 mm Hg 77%
23:00 +19°C° 0.1 mm 5 m/s 738 mm Hg 79%

6 Ottobre, Martedi

Tempo Temperatura Precipitazioni Vento Pressione Umidità
00:00 +17°C° 0.2 mm 6 m/s 738 mm Hg 79%
01:00 +17°C° 0.2 mm 6 m/s 738 mm Hg 79%
02:00 +16°C° 0.2 mm 6 m/s 738 mm Hg 79%
03:00 +16°C° 0.2 mm 6 m/s 738 mm Hg 81%
04:00 +16°C° 0.2 mm 5 m/s 738 mm Hg 83%
05:00 +16°C° 0.2 mm 5 m/s 738 mm Hg 85%
06:00 +16°C° 0 mm 5 m/s 738 mm Hg 86%
07:00 +16°C° 0 mm 5 m/s 738 mm Hg 86%
08:00 +16°C° 0 mm 5 m/s 738 mm Hg 87%
09:00 +17°C° 0 mm 5 m/s 739 mm Hg 84%
10:00 +19°C° 0 mm 5 m/s 739 mm Hg 80%
11:00 +20°C° 0 mm 5 m/s 739 mm Hg 77%
12:00 +20°C° 0.1 mm 5 m/s 739 mm Hg 75%
13:00 +20°C° 0.1 mm 5 m/s 739 mm Hg 73%
14:00 +20°C° 0.1 mm 5 m/s 739 mm Hg 72%
15:00 +19°C° 0.2 mm 4 m/s 739 mm Hg 77%
16:00 +18°C° 0.2 mm 4 m/s 739 mm Hg 82%
17:00 +17°C° 0.2 mm 4 m/s 739 mm Hg 87%
18:00 +15°C° 1.2 mm 4 m/s 739 mm Hg 89%
19:00 +16°C° 1.2 mm 3 m/s 739 mm Hg 91%
20:00 +16°C° 1.2 mm 2 m/s 738 mm Hg 93%
21:00 +16°C° 0.2 mm 3 m/s 738 mm Hg 88%
22:00 +15°C° 0.2 mm 4 m/s 738 mm Hg 83%
23:00 +15°C° 0.2 mm 5 m/s 737 mm Hg 78%

7 Ottobre, Mercoledi

Tempo Temperatura Precipitazioni Vento Pressione Umidità
00:00 +15°C° 0 mm 5 m/s 737 mm Hg 76%
01:00 +15°C° 0 mm 6 m/s 737 mm Hg 73%
02:00 +15°C° 0 mm 6 m/s 736 mm Hg 71%
03:00 +15°C° 0 mm 6 m/s 736 mm Hg 72%
04:00 +14°C° 0 mm 6 m/s 736 mm Hg 72%
05:00 +14°C° 0 mm 6 m/s 736 mm Hg 73%
06:00 +14°C° 0.2 mm 5 m/s 737 mm Hg 79%
07:00 +14°C° 0.2 mm 5 m/s 737 mm Hg 85%
08:00 +14°C° 0.2 mm 5 m/s 738 mm Hg 91%
09:00 +14°C° 0.1 mm 5 m/s 739 mm Hg 88%
10:00 +14°C° 0.1 mm 4 m/s 739 mm Hg 85%
11:00 +14°C° 0.1 mm 3 m/s 740 mm Hg 82%
12:00 +16°C° 0 mm 3 m/s 740 mm Hg 78%
13:00 +16°C° 0 mm 2 m/s 741 mm Hg 74%
14:00 +17°C° 0 mm 2 m/s 741 mm Hg 70%
15:00 +17°C° 0 mm 2 m/s 741 mm Hg 73%
16:00 +16°C° 0 mm 2 m/s 741 mm Hg 76%
17:00 +16°C° 0 mm 1 m/s 741 mm Hg 79%
18:00 +15°C° 0 mm 2 m/s 742 mm Hg 83%
19:00 +14°C° 0 mm 2 m/s 742 mm Hg 87%
20:00 +13°C° 0 mm 2 m/s 742 mm Hg 92%
21:00 +13°C° 0 mm 2 m/s 742 mm Hg 93%
22:00 +12°C° 0 mm 2 m/s 742 mm Hg 94%
23:00 +12°C° 0 mm 1 m/s 742 mm Hg 94%
Mostrare altro